EN

Hourly Weather Alimos

Today, 22 January, Friday

Time Temperature Precipitation Wind Pressure Humidity
00:00 +10°C° 0 mm 2 mps 766 mmHg 76%
01:00 +10°C° 0 mm 2 mps 766 mmHg 78%
02:00 +9°C° 0 mm 2 mps 766 mmHg 79%
03:00 +10°C° 0 mm 1 mps 766 mmHg 80%
04:00 +10°C° 0 mm 1 mps 765 mmHg 80%
05:00 +10°C° 0 mm 1 mps 765 mmHg 81%
06:00 +10°C° 0 mm 1 mps 765 mmHg 81%
07:00 +10°C° 0 mm 1 mps 765 mmHg 81%
08:00 +10°C° 0 mm 1 mps 765 mmHg 81%
09:00 +12°C° 0 mm 2 mps 765 mmHg 77%
10:00 +13°C° 0 mm 2 mps 765 mmHg 72%
11:00 +14°C° 0 mm 2 mps 765 mmHg 67%
12:00 +14°C° 0 mm 3 mps 765 mmHg 66%
13:00 +14°C° 0 mm 3 mps 764 mmHg 64%
14:00 +14°C° 0 mm 4 mps 764 mmHg 63%
15:00 +14°C° 0 mm 4 mps 763 mmHg 66%
16:00 +14°C° 0 mm 4 mps 763 mmHg 69%
17:00 +14°C° 0 mm 4 mps 763 mmHg 71%
18:00 +13°C° 0 mm 4 mps 763 mmHg 74%
19:00 +13°C° 0 mm 4 mps 763 mmHg 77%
20:00 +12°C° 0 mm 4 mps 763 mmHg 80%
21:00 +12°C° 0 mm 4 mps 763 mmHg 80%
22:00 +12°C° 0 mm 4 mps 763 mmHg 81%
23:00 +12°C° 0 mm 4 mps 763 mmHg 81%

Tomorrow, 23 January, Saturday

Time Temperature Precipitation Wind Pressure Humidity
00:00 +11°C° 0 mm 4 mps 762 mmHg 82%
01:00 +10°C° 0 mm 5 mps 762 mmHg 82%
02:00 +10°C° 0 mm 5 mps 762 mmHg 82%
03:00 +10°C° 0 mm 5 mps 761 mmHg 82%
04:00 +10°C° 0 mm 5 mps 761 mmHg 82%
05:00 +10°C° 0 mm 5 mps 761 mmHg 81%
06:00 +10°C° 0 mm 6 mps 761 mmHg 81%
07:00 +10°C° 0 mm 7 mps 761 mmHg 80%
08:00 +10°C° 0 mm 7 mps 760 mmHg 80%
09:00 +11°C° 0 mm 8 mps 760 mmHg 76%
10:00 +12°C° 0 mm 9 mps 760 mmHg 72%
11:00 +13°C° 0 mm 10 mps 760 mmHg 69%
12:00 +13°C° 0 mm 10 mps 759 mmHg 66%
13:00 +14°C° 0 mm 11 mps 759 mmHg 64%
14:00 +14°C° 0 mm 11 mps 758 mmHg 62%
15:00 +13°C° 0 mm 11 mps 758 mmHg 64%
16:00 +13°C° 0 mm 11 mps 757 mmHg 65%
17:00 +13°C° 0 mm 11 mps 757 mmHg 67%
18:00 +13°C° 0 mm 12 mps 756 mmHg 69%
19:00 +13°C° 0 mm 12 mps 756 mmHg 70%
20:00 +12°C° 0 mm 13 mps 756 mmHg 72%
21:00 +13°C° 0 mm 13 mps 756 mmHg 73%
22:00 +13°C° 0 mm 13 mps 756 mmHg 75%
23:00 +13°C° 0 mm 13 mps 756 mmHg 77%

Day after tomorrow, 24 January, Sunday

Time Temperature Precipitation Wind Pressure Humidity
00:00 +13°C° 0.7 mm 12 mps 756 mmHg 79%
01:00 +13°C° 0.7 mm 11 mps 755 mmHg 81%
02:00 +13°C° 0.7 mm 9 mps 755 mmHg 83%
03:00 +12°C° 0.1 mm 8 mps 755 mmHg 81%
04:00 +12°C° 0.1 mm 7 mps 755 mmHg 79%
05:00 +11°C° 0.1 mm 6 mps 755 mmHg 77%
06:00 +11°C° 0 mm 6 mps 755 mmHg 75%
07:00 +11°C° 0 mm 7 mps 755 mmHg 74%
08:00 +11°C° 0 mm 7 mps 755 mmHg 72%
09:00 +12°C° 0 mm 7 mps 756 mmHg 68%
10:00 +14°C° 0 mm 7 mps 756 mmHg 65%
11:00 +15°C° 0 mm 7 mps 756 mmHg 61%
12:00 +15°C° 0 mm 8 mps 756 mmHg 61%
13:00 +15°C° 0 mm 8 mps 755 mmHg 60%
14:00 +16°C° 0 mm 8 mps 755 mmHg 60%
15:00 +15°C° 0 mm 7 mps 755 mmHg 62%
16:00 +15°C° 0 mm 7 mps 755 mmHg 65%
17:00 +15°C° 0 mm 7 mps 755 mmHg 67%
18:00 +14°C° 0 mm 7 mps 755 mmHg 67%
19:00 +14°C° 0 mm 7 mps 755 mmHg 68%
20:00 +14°C° 0 mm 7 mps 754 mmHg 68%
21:00 +13°C° 0 mm 9 mps 754 mmHg 70%
22:00 +13°C° 0 mm 10 mps 754 mmHg 73%
23:00 +13°C° 0 mm 11 mps 753 mmHg 75%

25 January, Monday

Time Temperature Precipitation Wind Pressure Humidity
00:00 +13°C° 0 mm 12 mps 753 mmHg 74%
01:00 +13°C° 0 mm 12 mps 752 mmHg 73%
02:00 +13°C° 0 mm 13 mps 752 mmHg 72%
03:00 +13°C° 0.5 mm 12 mps 751 mmHg 73%
04:00 +13°C° 0.5 mm 11 mps 751 mmHg 75%
05:00 +13°C° 0.5 mm 10 mps 751 mmHg 77%
06:00 +13°C° 0 mm 10 mps 751 mmHg 76%
07:00 +13°C° 0 mm 9 mps 751 mmHg 75%
08:00 +12°C° 0 mm 8 mps 752 mmHg 73%
09:00 +13°C° 0 mm 8 mps 752 mmHg 67%
10:00 +15°C° 0 mm 7 mps 753 mmHg 61%
11:00 +16°C° 0 mm 7 mps 753 mmHg 56%
12:00 +16°C° 0 mm 7 mps 753 mmHg 54%
13:00 +16°C° 0 mm 7 mps 753 mmHg 52%
14:00 +16°C° 0 mm 6 mps 753 mmHg 51%
15:00 +16°C° 0 mm 6 mps 753 mmHg 54%
16:00 +15°C° 0 mm 6 mps 754 mmHg 57%
17:00 +15°C° 0 mm 6 mps 754 mmHg 60%
18:00 +14°C° 0 mm 7 mps 754 mmHg 61%
19:00 +14°C° 0 mm 7 mps 754 mmHg 61%
20:00 +12°C° 0 mm 7 mps 755 mmHg 62%
21:00 +12°C° 0 mm 8 mps 755 mmHg 62%
22:00 +12°C° 0 mm 8 mps 755 mmHg 62%
23:00 +12°C° 0 mm 8 mps 755 mmHg 63%

26 January, Tuesday

Time Temperature Precipitation Wind Pressure Humidity
00:00 +11°C° 0 mm 7 mps 755 mmHg 64%
01:00 +11°C° 0 mm 7 mps 755 mmHg 65%
02:00 +11°C° 0 mm 7 mps 755 mmHg 66%
03:00 +12°C° 0 mm 5 mps 756 mmHg 66%
04:00 +11°C° 0 mm 4 mps 756 mmHg 67%
05:00 +10°C° 0 mm 3 mps 756 mmHg 67%
06:00 +10°C° 0 mm 3 mps 756 mmHg 67%
07:00 +10°C° 0 mm 3 mps 757 mmHg 67%
08:00 +10°C° 0 mm 3 mps 757 mmHg 66%
09:00 +11°C° 0 mm 3 mps 757 mmHg 63%
10:00 +12°C° 0 mm 3 mps 757 mmHg 59%
11:00 +13°C° 0 mm 4 mps 758 mmHg 56%
12:00 +13°C° 0 mm 4 mps 757 mmHg 54%
13:00 +13°C° 0 mm 3 mps 757 mmHg 53%
14:00 +14°C° 0 mm 3 mps 757 mmHg 52%
15:00 +13°C° 0 mm 3 mps 757 mmHg 53%
16:00 +14°C° 0 mm 2 mps 757 mmHg 53%
17:00 +14°C° 0 mm 2 mps 757 mmHg 53%
18:00 +12°C° 0.1 mm 3 mps 757 mmHg 59%
19:00 +11°C° 0.1 mm 4 mps 757 mmHg 65%
20:00 +10°C° 0.1 mm 5 mps 757 mmHg 70%
21:00 +10°C° 0.2 mm 4 mps 757 mmHg 71%
22:00 +10°C° 0.2 mm 4 mps 757 mmHg 72%
23:00 +8°C° 0.2 mm 4 mps 757 mmHg 73%

27 January, Wednesday

Time Temperature Precipitation Wind Pressure Humidity
00:00 +8°C° 0 mm 4 mps 757 mmHg 73%
01:00 +8°C° 0 mm 4 mps 757 mmHg 73%
02:00 +7°C° 0 mm 4 mps 757 mmHg 73%
03:00 +7°C° 0 mm 5 mps 756 mmHg 72%
04:00 +7°C° 0 mm 5 mps 756 mmHg 71%
05:00 +5°C° 0 mm 6 mps 756 mmHg 70%
06:00 +5°C° 0 mm 6 mps 756 mmHg 71%
07:00 +5°C° 0 mm 6 mps 756 mmHg 72%
08:00 +5°C° 0 mm 6 mps 756 mmHg 73%
09:00 +5°C° 0.4 mm 7 mps 757 mmHg 72%
10:00 +5°C° 0.4 mm 7 mps 757 mmHg 71%
11:00 +6°C° 0.4 mm 8 mps 757 mmHg 70%
12:00 +6°C° 0.1 mm 7 mps 757 mmHg 69%
13:00 +6°C° 0.1 mm 7 mps 756 mmHg 68%
14:00 +8°C° 0.1 mm 6 mps 756 mmHg 67%
15:00 +8°C° 0 mm 6 mps 757 mmHg 64%
16:00 +7°C° 0 mm 5 mps 757 mmHg 62%
17:00 +7°C° 0 mm 5 mps 757 mmHg 60%
18:00 +7°C° 0 mm 4 mps 757 mmHg 59%
19:00 +6°C° 0 mm 4 mps 758 mmHg 57%
20:00 +7°C° 0 mm 3 mps 758 mmHg 56%
21:00 +5°C° 0 mm 3 mps 758 mmHg 54%
22:00 +5°C° 0 mm 3 mps 758 mmHg 53%
23:00 +6°C° 0 mm 2 mps 758 mmHg 51%
Show more